TimeCST,TemperatureF,Dew PointF,Humidity,Sea Level PressureIn,VisibilityMPH,Wind Direction,Wind SpeedMPH,Gust SpeedMPH,PrecipitationIn,Events,Conditions,WindDirDegrees,DateUTC
12:42 AM,48.2,44.6,87,30.18,10.0,North,15.0,23.0,N/A,,Overcast,10,2012-11-27 06:42:00
12:53 AM,48.0,43.0,83,30.19,10.0,NNE,13.8,23.0,N/A,,Overcast,20,2012-11-27 06:53:00
1:19 AM,48.2,42.8,82,30.21,10.0,NNE,10.4,21.9,N/A,,Overcast,30,2012-11-27 07:19:00
1:53 AM,48.0,42.1,80,30.21,10.0,NNE,10.4,-,N/A,,Overcast,30,2012-11-27 07:53:00
2:53 AM,46.9,39.0,74,30.22,10.0,NNE,15.0,25.3,N/A,,Overcast,30,2012-11-27 08:53:00
3:43 AM,46.4,39.2,76,30.23,10.0,NNE,10.4,-,N/A,,Overcast,20,2012-11-27 09:43:00
3:53 AM,46.0,39.0,76,30.23,10.0,North,10.4,20.7,N/A,,Overcast,10,2012-11-27 09:53:00
4:23 AM,44.6,35.6,71,30.23,10.0,NNE,10.4,23.0,N/A,,Mostly Cloudy,20,2012-11-27 10:23:00
4:53 AM,44.1,36.0,73,30.25,10.0,North,9.2,21.9,N/A,,Clear,10,2012-11-27 10:53:00
5:53 AM,43.0,35.1,74,30.27,10.0,NNE,10.4,-,N/A,,Mostly Cloudy,20,2012-11-27 11:53:00
6:53 AM,42.1,34.0,73,30.31,10.0,North,8.1,-,N/A,,Scattered Clouds,10,2012-11-27 12:53:00
7:53 AM,41.0,33.1,73,30.34,10.0,NNE,6.9,-,N/A,,Clear,20,2012-11-27 13:53:00
8:53 AM,43.0,33.1,68,30.36,10.0,North,10.4,-,N/A,,Clear,360,2012-11-27 14:53:00
9:53 AM,45.0,33.1,63,30.40,10.0,North,9.2,-,N/A,,Clear,360,2012-11-27 15:53:00
10:53 AM,48.0,34.0,58,30.39,10.0,NNW,9.2,-,N/A,,Clear,340,2012-11-27 16:53:00
11:53 AM,50.0,34.0,54,30.36,10.0,North,5.8,-,N/A,,Clear,10,2012-11-27 17:53:00
12:53 PM,53.1,34.0,48,30.34,10.0,NNW,9.2,-,N/A,,Clear,340,2012-11-27 18:53:00
1:53 PM,55.4,33.8,44,30.33,10.0,North,6.9,-,N/A,,Clear,350,2012-11-27 19:53:00
2:53 PM,55.9,30.9,39,30.31,10.0,NE,11.5,-,N/A,,Clear,50,2012-11-27 20:53:00
3:53 PM,54.0,32.0,43,30.32,10.0,North,9.2,-,N/A,,Clear,350,2012-11-27 21:53:00
4:53 PM,50.0,32.0,50,30.32,10.0,NNE,4.6,-,N/A,,Clear,20,2012-11-27 22:53:00
5:53 PM,43.0,34.0,71,30.33,10.0,NNE,3.5,-,N/A,,Clear,20,2012-11-27 23:53:00
6:53 PM,39.9,34.0,79,30.35,10.0,Calm,Calm,-,N/A,,Clear,0,2012-11-28 00:53:00
7:53 PM,37.9,33.1,83,30.37,10.0,Calm,Calm,-,N/A,,Clear,0,2012-11-28 01:53:00
8:53 PM,37.9,33.1,83,30.39,10.0,Calm,Calm,-,N/A,,Clear,0,2012-11-28 02:53:00
9:53 PM,34.0,32.0,92,30.39,10.0,Calm,Calm,-,N/A,,Clear,0,2012-11-28 03:53:00
10:53 PM,34.0,30.9,89,30.39,10.0,Calm,Calm,-,N/A,,Clear,0,2012-11-28 04:53:00
11:53 PM,33.1,30.0,89,30.39,10.0,Calm,Calm,-,N/A,,Clear,0,2012-11-28 05:53:00